KLM250 LKPR-LRTR

Flight info

Callsign KLM250
Flight time N/A
Altitude 33000
Route VOZ4B/30 VOZ DCT NELPA DCT PISAM DCT PESAT DCT BUG DCT TEGRI
Aircraft A359/H-SDE2E3GHIJ3J4J5LM1ORWXY/LB1D1

Departure

Time N/A
Airport Václav Havel Airport Prague (LKPR)

Arrival

Time 2026-04-24 19:00
Airport Timișoara Traian Vuia International Airport (LRTR)
Time Latitude Longitude Altitude Speed Heading
2026-04-24 17:09 50.10425 14.26566 1270 ft 0 kts 33°
2026-04-24 17:12 50.10425 14.26567 1270 ft 0 kts 33°
2026-04-24 18:54 45.73313 21.68163 2499 ft 226 kts 264°
2026-04-24 18:55 45.73385 21.63894 2364 ft 205 kts 285°
2026-04-24 18:55 45.73723 21.61991 2385 ft 192 kts 287°
2026-04-24 18:55 45.74069 21.60283 2681 ft 170 kts 289°
2026-04-24 18:56 45.74456 21.58677 2849 ft 171 kts 295°
2026-04-24 18:56 45.74940 21.57149 3006 ft 169 kts 298°
2026-04-24 18:56 45.75459 21.55636 3009 ft 167 kts 297°
2026-04-24 18:56 45.75916 21.54110 2954 ft 167 kts 292°
2026-04-24 18:57 45.76295 21.52563 2909 ft 164 kts 290°
2026-04-24 18:57 45.76608 21.50983 2690 ft 168 kts 287°
2026-04-24 18:57 45.76915 21.49373 2516 ft 167 kts 291°
2026-04-24 18:57 45.77302 21.47804 2337 ft 170 kts 291°
2026-04-24 18:58 45.77725 21.46252 2194 ft 167 kts 295°
2026-04-24 18:58 45.78165 21.44768 1934 ft 161 kts 295°
2026-04-24 18:58 45.78587 21.43289 1554 ft 158 kts 294°
2026-04-24 18:58 45.78973 21.41780 1357 ft 169 kts 291°
2026-04-24 18:59 45.79355 21.40216 1069 ft 164 kts 291°
2026-04-24 18:59 45.79724 21.38707 814 ft 159 kts 291°
2026-04-24 18:59 45.80100 21.37280 554 ft 150 kts 291°
2026-04-24 18:59 45.80442 21.35916 385 ft 143 kts 290°
2026-04-24 19:00 45.80759 21.34662 351 ft 119 kts 289°
2026-04-24 19:00 45.80998 21.33712 352 ft 86 kts 289°
2026-04-24 19:00 45.81162 21.33052 352 ft 64 kts 290°
2026-04-24 19:00 45.81293 21.32556 349 ft 44 kts 289°
2026-04-24 19:01 45.81369 21.32241 349 ft 19 kts 283°
2026-04-24 19:01 45.81306 21.32126 348 ft 17 kts 198°
2026-04-24 19:01 45.81224 21.32086 348 ft 0 kts 201°
2026-04-24 19:03 45.81220 21.32084 350 ft 2 kts 201°
2026-04-24 19:03 45.81193 21.32068 350 ft 6 kts 200°
2026-04-24 19:03 45.81153 21.32067 350 ft 4 kts 156°
2026-04-24 19:03 45.81131 21.32101 350 ft 5 kts 118°
2026-04-24 19:04 45.81116 21.32148 350 ft 4 kts 129°
2026-04-24 19:04 45.81107 21.32155 350 ft 2 kts 159°
2026-04-24 19:04 45.81086 21.32151 350 ft 4 kts 193°
2026-04-24 19:04 45.81069 21.32143 350 ft 0 kts 197°